Wind_Speed
19 19 20 20 20 20 20 20 20 20 20 20 20 20 20 20 20 20 20 19 19 19 18 17 17 15 15 15 15 15 15 15 15 16 17 20 20 19 20 21 23 24 23 22 21 20 19 18 18 18 19 19 19 19 18 17 16 15 16 15 14 12 10 6 6 8 8 8 8 8 5 4 7 9 10 10 9 9 7 6 5 5 5 4 4 4 3 3
19 19 19 19 19 19 19 20 20 20 20 20 20 20 20 20 20 20 20 20 20 20 20 20 19 18 17 17 16 16 15 15 15 15 17 20 20 19 20 21 23 24 24 23 22 22 20 19 19 19 19 19 19 20 19 19 18 17 17 16 14 14 12 8 7 8 10 9 7 8 9 9 9 10 10 10 10 10 7 5 6 5 4 3 3 4 3 2
19 18 19 19 19 19 19 19 19 19 19 19 19 19 20 20 21 20 20 21 21 21 21 21 20 20 20 19 18 17 16 16 14 15 18 20 20 20 20 21 22 23 23 23 23 22 21 20 19 19 19 19 19 19 20 20 20 19 19 18 15 15 15 12 10 6 9 9 5 7 13 12 11 10 8 10 10 9 8 6 5 4 3 2 3 3 2 1
17 17 17 17 18 18 18 19 19 18 18 18 18 19 19 19 20 20 20 21 21 21 21 22 22 21 21 20 20 19 19 17 14 17 18 19 20 20 20 21 22 22 22 22 22 22 21 21 21 20 20 19 18 18 19 19 20 21 21 20 17 16 15 14 13 7 7 9 5 5 11 13 11 10 9 11 10 7 7 6 5 4 3 3 3 2 2 2
17 17 17 16 16 17 17 17 17 17 17 17 17 18 18 18 19 19 20 21 21 21 21 22 22 22 21 21 21 21 21 17 16 20 18 17 21 20 20 22 22 22 21 21 21 22 22 22 22 22 21 20 19 18 17 18 20 22 22 22 20 18 16 15 15 11 9 10 8 6 7 12 11 10 11 11 10 8 7 6 5 5 4 4 4 3 2 2
20 19 19 18 18 17 17 17 17 17 17 16 16 17 17 17 18 18 19 20 21 21 21 22 22 23 22 22 22 22 23 18 19 22 17 18 21 19 20 21 22 22 21 20 21 22 23 23 23 22 21 21 20 18 18 19 20 21 22 23 22 21 19 16 15 13 12 12 11 6 8 12 11 11 11 10 9 8 8 7 6 6 4 5 5 4 3 2
22 22 21 21 21 20 19 19 19 18 18 18 17 17 17 17 17 18 18 19 20 21 21 21 21 22 22 23 23 23 24 19 20 23 20 21 22 20 19 21 23 23 22 22 21 22 23 24 24 23 23 23 21 21 21 20 20 20 22 23 23 24 20 19 16 14 15 17 14 9 10 12 10 11 10 9 9 8 8 8 7 6 4 5 6 5 4 4
24 24 24 23 23 23 22 22 21 21 21 20 20 20 19 19 19 18 18 18 19 20 21 21 22 22 22 23 23 24 24 19 22 26 22 22 22 21 20 20 23 23 23 23 21 22 23 24 25 25 24 23 23 23 22 22 21 19 20 23 24 24 22 21 20 16 16 18 16 13 11 11 10 11 10 9 10 9 8 7 7 6 3 5 6 5 5 5
27 26 26 26 25 25 24 24 23 23 23 23 22 22 22 22 21 21 20 20 20 19 20 21 21 22 22 22 23 25 22 20 25 26 23 23 24 23 21 21 22 23 23 23 23 23 22 23 26 26 26 26 25 25 25 23 21 19 21 25 26 25 24 22 21 20 18 17 16 15 15 13 11 13 12 10 11 10 9 9 9 6 6 7 7 6 6 5
29 29 29 28 28 27 27 26 25 25 25 24 24 24 24 24 24 23 23 23 22 21 21 21 21 22 22 22 24 23 20 22 26 24 24 25 25 24 23 22 22 23 23 23 24 23 23 24 26 28 28 27 27 26 27 24 21 23 25 25 25 26 25 23 21 21 20 18 16 17 19 16 14 15 14 12 12 11 10 12 11 8 8 9 7 7 6 5
30 31 31 30 30 30 29 28 27 27 26 26 25 25 25 25 25 25 25 25 25 24 23 23 22 22 22 22 24 21 20 24 24 23 26 26 25 26 25 24 23 24 23 24 24 24 26 26 26 28 28 28 27 26 26 23 23 25 23 22 23 24 24 22 21 21 21 20 18 19 21 19 17 15 14 13 12 11 12 12 11 9 10 9 7 7 7 6
32 32 32 32 32 32 31 30 29 28 28 27 27 27 27 26 26 26 26 26 26 26 26 26 25 25 24 23 23 21 22 24 22 23 25 26 26 26 26 26 25 25 24 24 25 26 27 27 26 25 27 29 28 27 27 24 25 25 22 20 21 21 23 22 21 22 23 22 21 22 22 20 18 14 13 14 13 12 13 12 11 11 10 9 8 8 7 7
32 33 33 33 33 33 33 32 31 31 30 29 29 28 28 28 27 27 27 27 27 27 27 27 27 27 27 25 24 23 23 23 22 23 24 25 27 27 27 27 27 27 26 26 25 26 27 27 27 25 27 28 27 29 28 26 26 25 22 20 20 20 21 22 23 23 23 24 24 22 22 22 19 14 14 15 13 12 13 13 13 12 10 9 9 9 8 8
32 33 32 33 33 34 34 34 33 32 31 31 30 30 30 29 29 28 28 28 28 28 28 28 28 28 28 27 27 26 24 23 23 23 23 25 26 27 28 27 28 28 28 28 27 26 26 27 27 27 27 25 26 29 27 25 26 25 24 21 20 20 18 20 24 24 23 25 26 23 22 23 20 16 15 16 14 12 13 14 14 11 10 11 10 9 10 10
32 32 32 32 32 32 33 33 33 33 32 32 31 31 31 30 30 30 30 30 29 29 29 29 28 29 29 29 29 29 27 26 25 23 24 25 25 27 28 28 29 29 30 29 28 27 27 27 27 28 28 26 27 27 25 26 26 25 26 23 20 19 17 19 23 24 23 25 28 24 23 22 19 16 16 17 16 14 14 15 14 12 11 11 11 11 12 11
31 31 31 31 31 32 32 32 32 32 32 31 31 31 31 31 30 30 30 30 30 30 30 30 30 29 29 29 30 30 29 29 27 26 25 25 26 27 28 28 28 29 30 30 30 29 28 27 27 27 28 28 27 25 25 26 26 26 26 24 22 20 17 17 21 23 23 25 28 25 23 23 20 18 18 17 16 15 15 16 15 13 11 12 12 13 14 12
32 31 31 31 31 31 32 32 32 32 31 31 31 31 31 31 30 30 30 31 31 31 31 32 31 31 31 30 30 31 30 30 29 29 28 27 27 27 26 27 28 29 30 31 31 31 30 28 27 27 28 29 27 27 27 25 24 25 26 24 23 21 18 16 18 22 24 26 28 25 23 25 23 21 19 17 16 16 16 16 14 12 12 13 14 14 14 12
32 31 31 31 31 31 32 32 32 32 32 32 32 32 32 31 31 31 31 31 31 31 31 32 32 33 33 31 31 31 31 31 31 31 30 29 29 27 27 28 28 29 29 30 31 31 31 30 29 29 29 29 28 28 25 21 21 24 26 25 24 23 21 18 15 16 23 26 28 27 25 25 26 25 22 19 17 16 18 17 14 14 15 16 16 15 14 13
32 31 31 31 31 31 31 32 32 32 32 32 32 33 33 33 33 32 32 32 32 32 32 32 32 34 34 32 32 32 32 32 31 31 31 31 31 30 29 30 29 29 29 30 30 31 32 32 33 31 29 26 24 25 23 20 23 25 25 24 25 27 23 20 14 11 21 27 25 26 26 26 28 27 24 21 19 18 19 19 16 16 18 19 18 16 15 14
33 32 31 31 31 31 31 31 32 32 32 32 33 33 33 34 34 34 34 34 34 34 34 34 33 34 34 32 33 33 33 33 32 32 31 31 32 31 32 31 30 30 30 29 29 30 32 34 34 31 27 23 22 24 24 25 27 27 27 24 24 27 25 23 18 16 20 27 24 24 27 28 28 28 25 23 23 21 18 18 17 16 19 21 19 18 17 15
34 34 33 33 33 33 33 33 32 33 33 33 33 33 34 34 34 34 34 35 35 35 35 35 35 35 35 34 34 34 34 34 34 33 32 32 32 33 33 33 33 32 30 30 30 31 33 34 33 29 27 26 25 26 26 28 30 31 32 31 28 27 25 24 21 18 20 22 23 22 24 27 27 27 25 24 26 26 21 17 17 18 19 20 19 19 20 16
37 36 36 36 35 35 35 35 34 34 34 34 34 34 34 34 34 34 34 35 36 36 36 36 36 36 36 36 36 36 36 36 36 35 34 32 32 33 34 34 35 34 32 32 32 32 33 32 30 28 29 29 28 28 28 29 31 32 34 33 32 29 26 24 22 19 18 21 23 22 22 25 27 27 26 26 27 27 26 21 20 20 20 19 17 19 21 16
37 37 37 37 36 35 34 34 34 34 34 34 34 34 34 34 35 35 35 36 36 36 37 37 37 37 37 37 37 38 38 38 38 37 35 35 35 35 34 35 36 36 35 35 34 34 32 29 27 27 30 32 32 31 30 30 32 34 34 32 30 29 28 24 19 18 22 26 23 21 25 24 27 28 26 27 27 27 27 24 23 21 20 19 17 19 20 15
35 35 35 36 35 33 32 31 31 32 32 32 32 33 33 33 34 34 34 35 36 36 36 37 37 37 38 38 38 39 39 40 40 38 37 38 39 38 36 36 36 36 36 36 36 35 33 30 28 28 30 33 34 34 33 32 32 34 34 33 30 29 32 27 18 18 27 31 23 16 24 28 29 31 28 27 28 27 25 24 23 21 21 22 20 21 20 15
32 32 32 32 32 31 30 29 29 28 28 29 29 30 30 31 31 31 32 31 34 35 33 34 36 35 36 37 37 39 39 41 42 40 39 40 40 39 39 38 37 36 37 37 37 37 35 33 31 31 32 33 35 36 36 35 34 33 32 33 31 31 34 34 28 21 21 26 24 22 27 27 22 25 28 29 28 27 24 21 22 23 22 22 21 21 20 16
30 30 30 30 29 29 27 26 26 26 26 25 25 26 26 27 27 27 28 25 29 34 29 29 33 32 33 35 35 37 39 41 42 42 42 41 41 41 40 40 39 38 38 38 39 39 38 37 35 34 33 33 35 37 38 38 36 34 32 32 33 32 34 37 37 32 25 24 21 21 31 32 23 20 24 26 25 25 25 23 23 25 22 20 21 20 18 16
27 27 27 26 25 25 24 22 22 24 24 21 22 22 21 22 22 23 23 19 24 33 27 23 27 27 29 32 32 34 36 38 39 41 42 42 43 42 41 41 41 41 40 41 42 41 39 39 38 37 36 36 36 37 38 39 38 36 33 33 33 33 35 38 41 41 37 33 27 22 24 29 32 30 26 28 29 27 26 24 22 23 21 20 21 20 18 17
24 24 23 22 22 22 21 21 20 20 21 20 19 19 18 18 18 19 19 16 20 28 26 22 22 23 26 27 28 31 32 34 36 37 39 40 43 43 42 42 42 43 43 43 42 41 41 42 41 40 40 38 37 37 37 39 41 39 35 35 35 35 37 38 40 42 42 41 38 34 26 22 28 29 24 25 32 33 30 27 24 21 20 21 22 20 20 19
21 21 20 20 20 20 20 21 20 18 19 19 16 16 16 15 16 17 17 17 20 24 25 24 22 21 24 24 25 26 28 32 33 33 34 36 39 41 42 43 44 45 48 48 45 43 39 39 42 43 43 41 39 38 38 40 42 40 38 38 38 37 39 40 41 42 43 46 47 44 40 33 27 25 24 24 27 29 28 27 26 24 21 21 22 22 22 20
20 19 19 19 19 20 19 19 18 17 16 16 15 15 14 14 16 16 15 18 21 22 23 24 22 20 21 22 23 24 25 28 29 29 30 31 34 35 38 41 43 43 45 48 48 47 43 41 45 45 44 44 43 42 42 42 42 40 40 40 40 41 43 43 43 42 45 49 50 47 46 43 36 28 23 22 24 25 26 28 28 27 24 23 24 23 21 20
19 19 19 19 19 19 18 16 16 15 13 13 13 12 13 14 14 14 16 19 19 20 23 24 21 19 18 19 21 21 21 23 25 25 26 27 29 30 31 33 36 39 42 45 46 47 47 48 49 48 47 47 47 46 46 43 40 39 41 42 41 43 45 44 42 43 47 50 47 44 44 46 46 40 27 16 19 24 26 27 26 25 24 25 26 23 20 20
19 18 18 19 19 19 17 14 13 13 12 11 10 11 12 12 12 12 14 17 18 21 23 20 18 19 18 18 21 20 18 21 22 22 25 26 24 24 27 28 34 39 38 39 41 42 44 47 48 47 48 49 49 48 47 44 42 42 43 44 45 43 44 45 42 42 46 49 46 42 42 45 48 47 38 24 17 22 25 22 23 24 22 23 25 22 20 21
17 17 17 18 18 18 16 13 11 11 11 10 10 11 11 12 13 10 10 16 19 21 19 15 17 20 19 20 23 20 18 20 21 20 23 25 22 23 27 28 30 33 31 33 37 37 37 42 47 47 45 49 52 51 50 47 45 46 45 45 46 46 45 45 45 44 43 44 44 42 43 46 46 46 44 36 24 20 21 22 26 30 26 22 21 20 22 25
16 16 16 15 15 15 13 11 10 10 11 10 10 10 10 12 12 11 15 19 17 16 16 15 18 20 19 22 23 20 20 22 21 19 19 22 21 20 25 28 27 28 30 33 36 34 27 26 38 44 44 49 51 49 50 47 43 45 47 46 46 47 46 42 40 41 42 43 42 41 45 48 45 43 44 42 37 30 22 19 23 31 33 29 22 22 26 26
16 15 14 13 13 13 11 10 9 9 9 9 9 10 11 13 13 15 18 17 13 14 16 16 18 19 20 23 23 21 23 24 22 19 20 21 16 14 23 31 31 29 29 29 31 34 30 19 19 25 30 42 50 48 48 46 40 37 41 46 47 46 46 44 38 32 32 36 37 39 44 47 45 43 41 41 43 42 36 28 23 24 31 34 29 26 26 24
15 15 14 13 12 11 10 9 8 8 8 9 9 10 12 15 17 17 16 14 13 14 14 14 17 19 17 18 23 26 25 25 24 20 20 22 20 20 29 32 28 27 27 27 26 32 35 28 19 16 15 24 37 42 46 49 43 31 28 37 45 46 45 45 44 38 32 31 31 30 33 36 39 42 43 42 42 41 42 41 35 28 30 38 38 33 30 27
14 14 13 11 10 9 9 8 8 8 8 8 8 10 12 15 16 16 15 15 15 14 14 14 16 19 13 8 17 25 23 23 27 22 18 23 25 26 30 30 26 24 24 27 28 31 35 32 28 25 18 14 16 24 37 48 49 39 26 23 31 38 43 44 44 43 40 37 30 24 22 24 29 33 34 37 41 40 40 42 40 34 34 38 37 33 32 30
12 12 11 10 8 8 7 6 6 5 5 5 6 9 11 12 12 13 14 15 13 13 14 14 17 19 13 11 16 26 21 18 24 23 19 24 30 30 31 31 28 25 24 26 29 32 34 32 31 29 22 16 15 17 22 31 42 47 38 26 22 28 34 39 43 45 43 37 30 25 21 19 23 24 23 26 33 35 36 40 40 39 43 42 38 37 36 32
11 10 9 8 7 6 4 4 3 1 2 3 4 6 7 6 7 9 10 10 11 12 12 12 15 15 10 13 19 26 23 17 19 20 18 22 30 34 33 32 30 28 27 27 29 31 33 33 34 34 27 18 17 20 19 19 29 44 47 38 30 27 29 29 35 45 47 37 28 27 26 21 19 19 20 23 27 26 26 32 37 40 44 42 35 36 38 34
10 8 5 5 5 4 3 2 3 3 1 2 3 3 3 3 4 4 6 7 8 9 8 9 14 14 12 15 18 20 23 22 20 21 21 24 31 35 34 33 33 32 30 30 30 31 34 35 36 39 37 29 22 19 18 18 23 31 42 43 32 28 33 32 27 34 46 45 32 24 26 26 22 20 21 19 19 23 24 24 31 36 39 38 31 29 34 37
9 7 6 7 6 6 6 6 6 5 2 2 1 0 1 2 2 3 4 5 5 7 8 10 13 13 12 16 18 18 21 23 21 21 22 23 30 35 34 31 32 33 34 34 34 35 38 39 37 38 43 43 36 24 19 20 21 20 30 40 36 30 34 37 30 25 32 43 42 30 20 18 19 18 18 17 15 18 21 18 23 28 29 30 29 29 32 36
9 9 8 8 8 9 8 8 8 6 4 3 2 2 2 2 2 3 3 4 4 4 7 10 11 10 12 15 18 19 20 22 22 21 20 20 26 33 34 33 33 34 36 37 40 43 43 41 39 38 41 45 43 38 32 29 28 25 26 34 39 39 37 32 30 25 22 28 37 37 26 16 15 16 14 17 20 20 19 16 16 19 21 23 25 27 29 31
8 8 9 8 9 10 7 6 8 7 6 5 5 5 5 5 5 5 5 6 6 6 8 12 13 12 13 16 19 21 22 24 26 26 24 25 30 33 35 37 36 35 38 40 43 45 43 42 42 41 41 40 40 43 43 41 39 38 37 38 42 47 42 30 25 24 23 21 25 33 35 28 20 18 18 18 20 19 18 16 11 12 16 19 21 25 28 30
7 7 9 9 8 9 8 6 6 7 7 7 7 6 7 7 6 6 7 7 8 9 10 13 15 16 17 19 21 23 25 27 30 31 30 32 35 37 39 40 39 41 43 41 41 42 43 47 48 46 45 40 38 40 43 43 42 40 40 40 43 47 43 29 24 26 29 30 25 26 35 33 25 21 19 15 16 17 12 11 8 8 9 14 17 21 26 29
7 6 8 8 7 8 9 8 6 7 8 8 8 7 7 7 7 7 8 9 10 12 14 16 18 20 22 23 25 27 28 30 33 34 35 37 39 42 44 44 43 47 47 43 41 41 44 49 51 50 50 45 40 40 41 41 40 37 38 40 43 46 39 30 31 33 33 36 37 30 30 31 31 28 22 16 18 22 17 13 15 17 20 22 23 24 27 28
8 7 7 8 8 8 8 8 7 7 8 8 8 7 7 7 8 8 9 11 13 14 16 18 20 21 24 25 27 29 30 31 32 33 34 37 39 42 46 48 48 50 51 49 47 44 46 51 51 52 53 49 45 45 46 46 43 40 41 43 45 42 32 32 38 36 30 34 42 41 34 34 37 39 34 29 28 29 30 30 30 29 29 30 28 27 27 26
9 10 10 8 8 7 7 7 7 7 7 8 7 7 7 7 8 10 11 13 15 16 17 19 21 22 24 24 25 26 26 27 27 26 26 28 32 35 37 41 43 45 48 49 47 47 50 52 52 53 54 52 50 49 50 50 49 46 44 45 48 46 39 40 45 41 33 37 43 42 39 39 38 39 41 40 36 36 38 40 39 33 28 29 32 30 29 30
11 12 13 12 10 8 7 7 7 7 7 8 8 7 8 9 10 12 13 15 16 17 19 20 21 21 22 22 22 20 18 17 16 16 16 19 22 26 28 30 31 33 37 40 40 42 48 51 52 54 56 55 54 52 51 51 51 51 50 48 51 52 49 50 54 49 41 43 46 43 41 43 40 36 38 40 40 42 44 44 42 38 31 31 36 35 34 37
12 13 14 14 12 9 8 7 7 7 7 7 8 8 9 11 13 14 15 16 17 18 19 19 19 19 19 18 17 14 11 9 10 11 15 17 19 21 23 25 26 27 29 32 32 33 40 47 50 51 55 58 58 56 55 53 52 52 54 53 53 54 52 52 56 54 46 45 48 47 47 49 45 39 36 38 40 41 43 44 43 40 35 33 37 38 37 38
13 13 14 14 13 11 9 8 8 8 8 8 9 10 11 13 14 16 16 17 17 18 18 18 17 16 16 15 13 10 8 9 11 13 16 18 18 18 19 20 22 25 26 25 26 28 31 36 41 45 51 57 59 59 59 58 56 55 55 54 53 54 53 51 54 56 52 48 48 50 52 54 52 45 40 41 42 39 38 41 40 39 39 37 37 40 41 39
14 13 13 12 12 11 10 10 10 10 10 10 11 12 13 15 16 17 17 17 17 18 18 16 15 13 12 12 10 9 9 10 13 16 18 19 19 18 18 18 18 21 23 22 22 24 24 24 29 37 45 53 56 57 58 60 60 61 59 55 52 52 52 53 55 56 56 55 53 54 55 55 56 53 44 43 45 44 42 42 38 37 40 40 40 40 41 40
14 12 11 10 10 11 11 10 11 11 11 12 13 15 16 16 16 17 17 17 17 17 17 15 13 12 11 11 10 9 10 11 14 16 18 18 18 18 17 17 17 17 19 20 21 22 22 20 23 29 37 44 49 52 56 59 61 63 62 59 56 54 51 53 55 53 55 59 60 61 60 58 58 57 51 47 47 49 50 46 41 41 42 41 41 40 39 40
Wind_Direction
288 287 285 284 282 281 279 278 277 276 275 274 273 271 270 269 268 266 264 263 262 261 260 259 258 256 256 255 251 247 243 240 236 236 235 236 234 229 228 227 227 228 228 228 227 225 222 219 220 223 229 231 232 234 233 232 231 231 237 239 237 245 252 254 250 248 255 255 261 266 245 217 202 194 203 204 189 182 188 187 182 191 186 172 170 175 177 151
287 286 285 284 282 281 279 278 277 275 275 274 272 271 269 268 267 266 265 263 261 261 260 258 257 256 255 255 255 251 247 242 237 236 234 236 236 231 230 229 230 230 229 228 229 228 227 223 220 221 226 229 231 234 234 232 231 230 233 237 236 238 240 244 256 241 230 242 267 255 223 216 213 198 197 200 191 183 186 187 185 187 178 171 173 184 199 169
288 286 284 283 282 281 280 278 277 276 274 273 272 271 269 268 266 266 265 263 261 260 260 259 257 255 254 253 253 253 251 246 241 240 235 235 237 233 230 231 231 232 231 230 230 230 231 231 227 226 227 229 232 233 235 235 234 233 231 232 233 237 235 236 261 261 214 226 288 249 215 216 220 207 198 200 197 182 185 192 179 181 178 167 166 184 228 258
290 288 285 284 282 281 280 279 278 277 275 274 272 271 269 268 266 265 264 263 262 259 258 259 258 255 253 252 252 251 250 248 246 244 237 235 237 234 232 232 232 232 233 231 230 230 232 234 233 233 232 231 234 235 237 237 236 235 232 230 228 235 236 229 243 263 230 225 287 276 216 220 224 215 210 208 207 197 198 198 179 185 182 167 174 198 239 272
291 288 286 283 281 280 280 279 279 278 277 275 274 272 271 269 268 266 263 263 262 260 258 257 257 256 254 252 251 249 249 247 245 244 239 239 239 234 232 233 233 233 233 232 230 229 230 232 233 234 235 234 235 236 240 240 237 236 234 231 228 232 237 235 238 249 247 230 255 288 224 220 225 226 224 207 205 212 211 206 195 194 192 181 184 202 226 259
288 286 284 281 279 277 276 276 276 276 276 276 274 273 272 271 269 267 265 263 262 262 259 257 256 255 254 252 250 249 249 241 241 246 241 241 241 236 233 233 234 233 232 231 228 227 227 229 231 233 235 236 236 235 237 239 239 238 236 234 231 231 234 240 244 245 247 235 239 250 216 220 222 221 224 208 201 211 221 227 214 202 207 203 190 195 209 218
284 283 281 279 277 275 273 272 272 272 271 271 271 271 271 270 269 268 266 264 263 262 261 260 256 255 253 252 250 248 248 241 241 246 240 239 243 239 235 233 235 234 231 230 228 226 226 226 228 230 232 234 235 234 235 238 240 239 238 237 234 234 234 238 241 241 243 242 245 240 217 228 229 214 214 214 213 214 227 233 217 204 210 211 198 196 197 196
280 278 277 275 274 273 271 269 268 268 267 267 267 267 267 267 266 266 266 265 263 262 262 261 259 256 253 252 251 248 247 241 241 244 240 240 242 241 237 234 236 234 232 229 227 227 226 225 227 227 229 231 233 234 235 237 238 239 239 239 237 235 234 237 237 237 238 240 248 252 237 235 241 232 220 217 220 218 223 222 212 208 210 213 207 201 196 192
277 275 274 272 270 269 268 267 265 264 264 264 263 263 263 263 263 263 263 262 262 261 261 260 260 258 255 253 251 250 247 239 240 244 241 238 239 239 238 236 237 236 234 230 228 227 226 226 226 227 227 228 229 231 234 236 238 238 236 236 234 232 233 234 236 237 236 234 240 250 248 238 237 240 228 217 224 226 222 218 219 217 208 214 212 205 201 197
277 275 273 271 269 267 265 264 263 262 261 260 260 260 261 261 261 261 261 260 260 259 258 258 258 258 256 254 252 252 248 240 240 243 241 239 237 237 236 236 237 238 236 233 229 226 226 226 225 226 227 228 228 228 231 233 235 236 236 236 234 231 232 233 235 238 239 238 236 242 246 239 233 235 225 217 228 233 227 221 219 215 207 210 210 206 203 202
276 274 273 271 269 267 264 262 261 259 259 258 258 258 258 259 259 259 259 259 258 257 256 256 255 256 255 254 254 252 248 244 241 240 241 241 238 236 235 235 235 237 237 235 231 227 227 226 226 226 227 230 231 232 234 234 236 242 244 247 243 236 234 234 234 237 239 239 238 239 244 243 235 230 224 221 225 225 224 224 220 213 210 210 209 211 208 203
275 273 271 270 269 267 265 263 261 259 257 256 256 256 256 257 257 257 257 257 257 256 255 254 253 253 253 253 253 250 247 247 244 240 241 240 239 237 235 234 233 235 236 235 233 230 228 228 228 227 228 229 231 233 234 232 237 246 249 250 250 244 236 234 235 237 238 238 239 240 246 249 243 237 233 229 223 220 218 222 222 214 210 210 209 212 211 204
274 272 270 269 268 267 266 264 262 260 258 257 256 256 255 256 256 256 256 255 255 254 254 253 253 252 251 251 251 248 247 247 244 241 241 240 239 238 235 233 232 233 235 235 235 233 231 230 229 228 228 229 230 233 233 231 236 244 249 250 251 248 239 234 235 237 239 240 239 240 246 250 249 241 237 236 229 224 217 216 220 211 207 209 208 213 212 205
275 273 271 269 268 267 266 265 264 262 260 259 257 257 256 256 256 255 255 254 253 253 252 251 251 251 251 250 249 248 246 245 243 241 241 240 239 238 236 233 232 232 233 234 235 235 233 232 230 229 231 229 231 235 234 234 237 242 247 249 249 249 243 235 236 238 240 245 242 240 247 251 251 241 233 237 235 229 226 226 225 214 207 207 208 215 213 210
277 275 273 271 269 267 266 265 264 262 261 259 258 257 257 256 256 255 255 254 253 251 250 249 249 249 250 249 249 248 244 242 242 240 239 240 239 238 237 234 233 232 232 233 234 235 234 233 231 231 232 230 231 234 234 234 237 240 244 248 249 252 248 240 241 240 239 247 246 239 243 248 252 252 242 238 233 227 234 234 226 219 213 211 212 216 214 214
279 276 274 273 271 269 267 266 264 263 261 260 259 258 257 256 256 255 254 254 252 251 249 248 247 248 248 247 247 247 244 242 241 239 238 238 238 238 238 236 234 233 233 233 233 234 235 233 232 231 231 230 231 232 231 231 232 234 240 245 248 250 250 245 245 245 239 245 249 242 241 244 243 248 249 246 243 235 237 238 230 226 224 220 218 216 215 215
280 277 276 274 272 270 269 267 265 264 263 262 261 260 258 257 256 255 255 253 252 251 249 248 247 246 246 245 246 246 245 243 240 238 237 236 237 238 238 237 235 234 233 232 232 233 234 234 233 232 231 230 230 230 230 230 230 233 238 241 246 251 250 244 244 251 246 240 245 245 240 242 240 239 240 244 251 246 243 242 237 235 234 230 225 218 216 213
281 279 277 275 273 271 270 268 267 265 263 262 262 261 259 258 257 255 254 253 252 251 249 248 247 246 245 244 245 244 244 244 241 239 237 236 236 236 236 236 235 234 233 233 232 232 233 233 233 232 230 229 229 231 232 232 231 232 237 238 241 247 248 245 236 250 263 250 241 243 241 241 242 240 238 239 243 244 243 240 237 241 240 233 228 222 216 210
283 281 279 277 276 274 272 271 270 268 266 264 263 261 260 259 257 256 255 253 252 250 249 248 247 247 245 244 244 243 242 244 242 240 238 236 236 235 234 235 236 235 234 234 233 232 232 232 233 232 231 232 232 233 231 229 227 226 232 236 240 241 241 245 225 213 263 263 243 240 242 243 245 241 238 241 241 238 237 235 235 242 245 237 228 223 217 209
285 283 282 280 278 277 275 274 272 271 269 266 264 263 261 260 258 256 255 254 253 251 249 248 246 246 246 244 244 244 242 242 242 240 238 236 236 235 234 235 235 234 234 234 233 232 232 232 232 232 232 232 232 232 227 225 225 221 221 224 232 238 236 241 231 203 238 264 266 254 242 238 242 241 237 239 240 239 236 233 231 235 245 241 229 224 220 208
286 284 282 282 281 279 278 276 274 272 270 268 266 264 262 261 259 258 257 255 254 252 250 248 246 246 246 244 243 244 243 241 241 239 238 236 236 235 234 233 234 234 233 233 233 233 233 233 232 230 230 229 227 227 225 224 226 224 223 221 221 226 229 235 236 218 221 249 270 266 245 236 239 242 241 236 236 239 238 236 233 231 238 237 226 224 219 205
287 285 284 283 282 281 279 278 276 273 272 270 268 266 264 262 261 259 258 257 255 254 252 250 248 247 246 244 242 243 243 242 240 239 237 236 235 234 233 233 233 233 232 232 232 232 233 234 233 229 228 228 227 227 226 225 226 228 229 229 226 223 223 227 228 225 223 230 244 257 259 249 243 243 242 236 235 238 237 235 235 230 230 229 225 227 222 211
286 285 286 285 284 283 280 278 276 274 272 270 269 268 265 264 262 261 259 258 256 254 253 251 249 248 246 245 244 243 242 241 240 238 237 237 235 234 232 232 233 232 232 231 232 233 234 233 232 228 227 227 227 226 227 226 227 229 230 230 230 224 222 223 218 222 230 227 230 261 279 268 250 242 241 241 239 238 235 231 231 230 226 221 220 228 228 221
287 286 285 284 284 283 281 278 275 273 271 270 269 267 266 265 263 261 260 259 257 254 254 253 250 249 247 246 245 244 242 242 241 238 237 237 236 235 233 232 232 232 232 232 232 233 232 231 228 226 225 225 226 226 226 227 228 230 232 231 228 224 222 220 209 214 234 231 213 233 268 269 260 249 241 243 244 242 237 230 229 231 228 222 219 227 231 224
287 285 284 282 282 282 282 279 275 271 269 267 266 265 265 263 262 262 260 259 258 254 253 253 251 249 249 247 245 244 243 242 241 237 237 238 237 236 235 233 233 232 232 232 232 232 231 229 226 225 224 223 224 225 226 227 229 229 232 233 228 223 222 220 212 207 231 236 213 211 236 243 255 254 239 236 243 247 242 232 233 234 230 233 232 228 230 228
286 285 284 282 281 281 281 280 277 272 268 266 264 261 261 261 260 260 258 261 261 253 249 251 251 250 249 248 246 245 243 242 241 239 238 238 237 236 235 233 232 232 231 231 231 230 230 230 228 225 225 224 223 224 225 226 228 228 229 231 229 226 225 223 220 212 215 226 217 222 236 229 228 249 248 241 241 246 246 236 234 235 233 240 241 230 229 236
286 285 284 283 282 281 281 282 280 275 271 267 263 260 258 256 257 257 256 264 262 253 248 248 250 250 248 247 246 244 244 243 241 240 238 238 237 236 236 233 230 230 230 230 231 230 229 228 229 227 225 225 224 224 226 226 227 227 227 230 230 227 226 226 227 224 220 222 215 215 239 242 236 240 249 253 250 245 245 240 229 231 235 238 239 235 236 240
286 285 284 283 283 283 286 286 283 280 274 268 263 261 257 254 254 253 252 256 256 254 252 247 246 249 249 248 246 244 244 243 242 240 239 238 237 236 236 234 230 228 227 228 230 231 231 229 228 228 227 226 226 226 226 227 228 225 225 229 230 228 228 227 230 233 229 227 224 216 222 242 247 242 236 246 258 255 246 242 233 227 231 237 239 237 238 239
287 284 283 283 285 287 291 291 288 281 273 269 263 257 253 252 250 249 251 254 254 254 256 253 247 247 250 250 248 246 244 243 242 241 239 238 237 236 235 234 232 230 229 227 226 226 228 229 228 228 229 226 225 227 227 226 228 225 223 227 230 230 230 227 227 232 233 231 230 228 227 230 240 248 235 228 249 258 252 249 245 237 232 234 237 233 232 237
287 284 282 282 286 289 292 296 291 281 272 269 263 255 249 247 248 250 252 254 254 254 257 257 250 246 250 253 250 246 245 244 242 241 241 239 237 236 235 234 234 233 233 231 229 228 227 228 227 224 227 229 225 225 227 226 227 227 225 227 230 232 232 229 226 228 233 235 234 233 235 234 232 236 238 233 240 251 262 265 255 244 237 232 232 229 230 236
289 285 282 282 285 289 293 297 290 280 274 268 262 254 247 247 252 253 251 253 257 257 251 250 250 247 248 254 252 246 246 248 244 242 241 238 238 237 234 233 232 231 232 232 232 232 231 231 230 225 223 226 226 224 226 228 226 226 227 226 228 233 236 235 232 231 235 238 238 236 239 240 237 233 229 236 244 242 251 267 265 251 239 234 234 233 233 238
294 289 285 284 284 287 293 294 284 278 274 266 260 251 248 251 251 248 250 250 251 251 248 246 250 249 246 252 254 248 248 251 246 244 244 240 239 239 233 230 231 229 228 231 231 230 231 232 234 233 227 224 226 225 225 227 227 226 226 227 226 229 235 236 233 233 237 241 242 241 241 243 243 241 233 225 235 237 231 244 266 265 249 235 234 235 237 239
302 298 292 287 286 287 291 290 279 274 271 263 256 250 246 249 244 233 238 243 243 249 252 246 243 246 247 249 251 250 251 253 247 243 244 242 239 241 239 234 233 231 227 228 229 228 230 233 233 234 234 229 226 226 225 224 227 228 226 228 229 228 232 237 236 234 237 242 245 244 244 245 245 246 241 229 226 236 226 224 247 259 256 243 228 222 230 237
312 306 299 292 289 288 289 287 279 272 269 261 254 248 242 243 239 228 237 247 251 254 252 244 242 247 247 248 252 254 249 248 247 244 243 242 241 246 247 238 231 231 230 229 229 224 220 232 239 238 239 238 231 227 228 225 224 229 228 227 230 231 230 234 240 241 240 242 246 246 245 246 246 248 248 240 231 231 226 219 239 254 256 252 236 222 227 234
318 312 305 298 292 291 289 283 275 266 261 255 248 242 233 232 230 232 244 255 258 254 248 244 248 249 248 249 251 251 248 245 243 242 242 238 232 236 242 237 230 230 232 228 227 223 211 208 238 244 242 243 238 230 229 228 224 227 230 229 228 230 231 231 233 238 242 244 247 250 249 249 249 249 251 249 241 237 237 230 230 242 247 247 243 236 237 239
320 313 307 302 296 293 286 277 269 259 252 248 242 236 232 233 236 241 252 259 256 257 256 252 250 247 253 262 254 245 244 247 242 237 242 241 234 239 246 243 237 235 234 229 228 228 216 199 201 216 222 237 242 238 233 230 225 221 228 234 230 227 229 232 231 229 232 236 239 246 251 254 256 253 251 253 251 245 243 240 234 232 242 249 248 246 246 247
319 314 309 306 301 293 286 277 270 260 251 243 236 236 237 240 246 250 257 261 261 263 259 254 250 244 239 248 257 251 241 240 241 235 235 242 240 242 247 245 240 236 233 229 227 228 223 211 205 207 204 208 229 238 233 228 224 217 215 230 236 233 230 230 231 230 228 229 230 231 237 246 256 261 259 257 256 251 247 246 239 232 238 247 249 250 253 253
323 318 313 313 308 298 291 282 274 266 253 240 235 244 247 248 252 255 259 262 263 257 248 245 252 254 232 196 237 258 248 233 241 240 233 241 245 242 242 243 241 236 232 230 229 230 229 221 211 206 204 209 219 221 223 226 224 217 209 205 216 232 235 232 229 228 227 229 230 227 227 233 244 261 272 267 262 257 252 250 244 237 238 243 250 257 260 256
333 326 320 323 322 312 307 296 290 288 244 232 243 262 265 261 258 255 257 260 257 251 248 249 257 261 243 217 237 258 259 247 247 246 233 238 248 249 243 242 241 236 234 234 232 234 233 225 216 212 209 216 224 215 211 223 226 219 212 202 199 212 224 228 231 230 227 227 231 230 228 227 228 240 258 273 281 278 263 251 246 244 244 245 248 256 259 254
343 339 344 354 350 355 14 34 70 80 125 213 244 270 261 243 245 238 241 247 248 251 250 249 253 252 246 249 255 259 260 256 251 249 244 243 251 254 250 245 242 238 235 235 236 237 237 231 223 219 220 220 219 214 214 226 229 223 212 203 200 211 215 213 222 231 229 225 223 226 228 226 221 223 234 255 286 294 283 257 240 239 245 245 240 242 252 251
355 3 25 30 27 45 55 60 70 71 77 116 169 251 146 183 229 231 233 241 240 246 247 244 251 254 248 252 258 260 261 261 258 254 255 254 253 254 255 250 245 241 236 235 237 235 233 232 226 221 225 228 226 217 210 220 229 225 212 206 209 214 212 211 213 220 230 230 222 217 220 224 222 225 234 237 245 268 279 258 227 226 236 244 241 237 243 248
7 18 33 37 38 44 49 56 55 46 46 58 48 27 20 344 318 303 292 295 286 271 273 273 272 273 264 260 268 276 276 274 270 257 247 249 253 255 259 257 250 245 239 235 236 236 235 235 232 228 228 230 232 226 216 215 218 213 207 209 213 210 204 209 215 210 220 234 228 219 211 205 209 210 218 222 218 234 258 253 223 218 222 230 237 238 236 238
12 23 29 30 35 35 32 44 44 31 24 21 14 7 352 341 339 325 317 319 316 311 304 298 298 297 290 285 285 288 285 282 281 271 255 253 262 266 266 263 258 254 247 239 238 240 241 240 238 236 233 233 236 236 230 225 223 219 210 203 204 205 202 207 220 214 205 213 228 228 216 203 201 200 195 197 199 213 247 256 227 218 233 237 236 238 236 232
6 19 22 19 26 31 28 32 30 13 6 5 359 355 345 337 338 329 323 324 322 320 312 303 304 304 298 293 289 286 285 281 280 278 270 265 268 270 266 263 262 260 256 250 245 243 243 241 238 236 235 232 231 236 239 235 232 231 221 207 200 200 200 207 221 217 206 199 204 226 224 211 206 206 194 188 193 196 222 256 225 185 225 246 235 226 228 229
1 9 12 6 6 16 23 27 16 355 352 357 351 346 342 335 333 332 328 324 319 316 311 305 304 301 296 292 289 285 281 278 276 275 273 271 270 269 266 264 262 260 259 257 251 245 240 240 240 237 234 231 224 226 231 229 228 228 223 212 200 196 200 211 213 211 213 205 194 203 218 209 208 213 197 187 202 192 185 210 207 182 188 207 214 213 214 220
354 353 354 359 358 0 8 9 1 348 345 347 342 336 336 332 328 327 324 319 315 311 307 303 299 296 292 290 288 285 282 279 277 275 273 271 269 267 266 264 261 260 259 257 254 249 241 239 239 238 236 232 226 223 223 222 222 223 224 216 201 197 208 215 206 204 217 215 199 198 202 195 200 210 202 195 198 187 184 197 199 195 194 196 204 210 207 211
340 336 335 340 342 346 353 352 345 342 340 335 331 327 325 323 320 319 316 312 310 307 304 301 297 295 292 290 288 288 287 283 281 279 277 275 272 269 267 264 263 261 258 256 254 251 246 242 238 237 235 232 229 228 227 225 223 223 226 221 209 205 210 207 200 199 211 216 209 203 198 191 199 210 207 205 203 191 191 198 203 210 209 197 199 204 199 198
333 331 331 327 324 329 340 342 336 337 334 327 324 322 318 318 316 314 313 310 307 306 304 301 299 297 295 295 294 293 292 288 287 290 294 293 286 277 269 265 266 266 260 256 253 249 246 243 239 237 235 231 227 226 227 227 226 225 227 227 220 217 214 207 202 202 204 210 210 206 197 190 198 209 205 205 210 206 204 209 216 226 222 203 202 206 204 205
330 330 332 330 328 329 332 333 331 332 328 321 320 317 313 315 315 313 312 310 307 306 304 302 302 299 297 301 301 295 290 292 299 306 311 313 307 293 278 266 264 266 263 258 256 252 246 242 240 237 236 233 228 224 224 226 227 227 228 229 227 225 222 214 208 204 204 208 209 207 199 190 194 204 202 200 206 208 213 218 222 227 225 209 204 206 208 210
327 325 328 330 332 334 334 333 329 327 324 317 317 317 314 315 316 314 313 311 308 307 306 304 304 302 304 310 304 285 280 293 304 311 314 313 309 302 291 276 265 261 260 258 255 253 249 245 242 238 236 235 232 227 225 225 225 226 228 229 229 228 226 222 215 209 207 208 208 206 200 192 194 203 206 206 204 203 211 217 216 220 221 212 205 207 209 210
328 322 320 321 327 330 332 331 328 327 327 325 324 323 321 319 319 316 314 312 310 308 307 306 304 303 310 317 306 285 285 300 306 308 309 308 302 295 291 287 277 264 258 258 253 247 248 248 246 244 240 236 233 230 228 227 227 227 227 228 228 228 226 223 220 216 212 212 211 206 199 194 197 204 210 213 209 207 212 215 211 212 214 209 206 209 211 212
332 322 313 313 321 326 327 327 328 330 333 333 332 329 325 322 320 318 314 312 311 309 307 306 302 301 308 316 314 303 299 305 309 306 305 303 296 289 283 281 280 271 261 259 252 244 245 250 249 248 246 241 235 232 229 229 229 229 227 227 227 228 227 224 221 219 217 217 216 211 202 195 198 206 213 215 212 211 214 215 211 208 209 210 210 211 212 212
Height
5864 5863 5863 5863 5863 5862 5862 5862 5862 5862 5862 5863 5863 5863 5863 5863 5863 5863 5864 5864 5864 5864 5865 5865 5865 5866 5866 5866 5867 5867 5868 5868 5869 5870 5870 5870 5870 5872 5873 5874 5874 5875 5876 5878 5878 5879 5880 5881 5881 5882 5883 5884 5885 5886 5887 5888 5888 5889 5889 5889 5891 5892 5892 5892 5893 5893 5893 5893 5894 5895 5896 5897 5899 5898 5898 5899 5900 5901 5901 5901 5902 5902 5903 5903 5903 5904 5905 5905
5862 5861 5861 5860 5860 5860 5860 5860 5860 5860 5860 5860 5860 5860 5860 5860 5860 5861 5861 5861 5862 5862 5862 5863 5863 5864 5864 5865 5865 5865 5866 5867 5867 5868 5868 5868 5869 5870 5871 5872 5872 5873 5875 5876 5877 5878 5879 5880 5880 5881 5882 5883 5884 5885 5886 5887 5887 5888 5888 5889 5890 5891 5892 5892 5893 5893 5893 5893 5894 5895 5895 5896 5898 5898 5899 5900 5900 5900 5901 5901 5902 5903 5903 5903 5904 5904 5905 5905
5859 5859 5859 5858 5858 5857 5857 5857 5857 5857 5857 5857 5857 5857 5857 5858 5858 5858 5858 5858 5859 5860 5860 5860 5861 5862 5862 5863 5863 5864 5864 5865 5866 5867 5866 5867 5867 5868 5869 5870 5871 5872 5873 5875 5876 5877 5878 5879 5880 5880 5881 5881 5882 5884 5885 5886 5887 5887 5888 5888 5889 5890 5891 5892 5893 5894 5893 5893 5894 5895 5895 5896 5897 5898 5899 5899 5898 5899 5900 5900 5901 5902 5903 5903 5904 5904 5905 5905
5857 5857 5856 5856 5855 5855 5855 5855 5855 5855 5855 5855 5855 5855 5855 5855 5855 5856 5855 5855 5856 5857 5857 5857 5858 5859 5860 5860 5861 5862 5862 5864 5865 5864 5864 5865 5866 5866 5868 5868 5869 5870 5872 5873 5875 5876 5877 5878 5879 5879 5880 5881 5881 5882 5883 5885 5886 5886 5887 5888 5889 5889 5891 5892 5893 5894 5894 5894 5895 5894 5895 5895 5895 5897 5898 5898 5897 5897 5899 5900 5901 5901 5902 5903 5903 5904 5905 5905
5855 5855 5854 5854 5853 5853 5852 5852 5852 5852 5852 5852 5852 5852 5852 5852 5852 5853 5853 5853 5853 5854 5855 5855 5855 5856 5857 5858 5858 5859 5860 5863 5863 5861 5863 5864 5863 5865 5866 5866 5867 5869 5870 5871 5873 5874 5875 5876 5877 5877 5879 5879 5880 5881 5882 5883 5883 5884 5886 5887 5888 5889 5890 5892 5893 5895 5894 5895 5896 5895 5895 5894 5895 5897 5897 5897 5898 5898 5898 5901 5901 5901 5901 5902 5903 5904 5905 5905
5853 5853 5852 5851 5851 5851 5850 5850 5849 5849 5849 5849 5849 5849 5849 5849 5850 5850 5850 5850 5850 5851 5851 5852 5853 5853 5854 5855 5856 5856 5857 5860 5860 5859 5862 5862 5861 5863 5864 5865 5866 5867 5868 5870 5871 5872 5873 5874 5875 5876 5877 5878 5879 5880 5880 5881 5882 5883 5885 5886 5887 5888 5889 5891 5892 5894 5894 5896 5897 5897 5897 5895 5896 5896 5896 5897 5898 5898 5899 5900 5900 5901 5902 5902 5903 5904 5905 5905
5851 5850 5849 5849 5848 5848 5848 5847 5847 5847 5847 5846 5846 5846 5846 5846 5847 5847 5847 5847 5848 5848 5848 5849 5850 5850 5851 5852 5853 5854 5854 5858 5858 5857 5859 5859 5860 5862 5863 5863 5864 5865 5866 5867 5869 5870 5871 5872 5873 5874 5875 5876 5877 5878 5878 5879 5880 5882 5883 5885 5886 5887 5889 5890 5891 5892 5893 5894 5894 5896 5897 5896 5896 5896 5897 5898 5898 5898 5898 5899 5900 5902 5902 5902 5903 5904 5905 5905
5847 5847 5846 5846 5845 5845 5845 5845 5844 5844 5844 5844 5843 5843 5843 5843 5843 5844 5844 5844 5845 5845 5846 5846 5847 5848 5848 5849 5850 5850 5852 5856 5855 5853 5856 5857 5858 5859 5861 5862 5862 5863 5864 5865 5867 5868 5869 5870 5871 5872 5873 5874 5875 5876 5877 5877 5879 5881 5882 5883 5884 5886 5888 5889 5890 5892 5892 5892 5891 5892 5894 5894 5894 5895 5897 5898 5898 5898 5898 5899 5900 5902 5902 5903 5904 5904 5904 5905
5844 5843 5843 5842 5842 5842 5842 5842 5841 5841 5841 5841 5841 5840 5840 5840 5840 5841 5841 5841 5842 5842 5843 5843 5844 5845 5845 5846 5847 5847 5850 5852 5851 5851 5854 5854 5855 5857 5859 5860 5860 5861 5862 5864 5865 5866 5868 5869 5869 5870 5871 5872 5873 5874 5875 5876 5878 5880 5881 5881 5882 5884 5886 5888 5889 5890 5891 5891 5891 5891 5891 5893 5894 5894 5896 5898 5899 5898 5898 5899 5901 5902 5902 5904 5904 5904 5904 5905
5841 5840 5839 5839 5838 5838 5838 5838 5838 5838 5838 5838 5838 5837 5837 5837 5837 5837 5838 5838 5838 5839 5840 5840 5841 5841 5842 5843 5844 5845 5847 5848 5848 5850 5851 5851 5853 5855 5856 5857 5858 5859 5860 5861 5863 5864 5865 5866 5867 5868 5869 5870 5871 5872 5873 5875 5877 5878 5878 5878 5880 5882 5884 5887 5888 5889 5889 5889 5891 5890 5889 5891 5894 5895 5896 5898 5899 5899 5899 5900 5900 5902 5902 5903 5904 5904 5904 5905
5837 5836 5835 5835 5834 5834 5834 5834 5834 5834 5834 5834 5834 5834 5834 5834 5834 5834 5835 5835 5835 5836 5836 5837 5838 5838 5839 5840 5841 5843 5844 5844 5846 5847 5847 5849 5850 5852 5853 5855 5856 5857 5858 5859 5860 5862 5863 5864 5865 5866 5868 5869 5870 5872 5873 5875 5876 5875 5877 5879 5880 5882 5884 5886 5888 5888 5888 5889 5890 5889 5888 5889 5892 5894 5895 5896 5898 5899 5900 5900 5900 5901 5902 5902 5902 5903 5904 5904
5833 5832 5831 5830 5830 5830 5830 5830 5830 5830 5830 5830 5830 5830 5830 5831 5831 5831 5831 5832 5832 5832 5833 5833 5834 5835 5836 5837 5838 5840 5840 5841 5843 5844 5844 5846 5847 5849 5851 5852 5854 5854 5855 5857 5858 5859 5860 5862 5863 5865 5867 5867 5869 5870 5871 5873 5874 5874 5877 5879 5880 5881 5883 5885 5887 5887 5888 5888 5889 5889 5888 5888 5890 5892 5893 5894 5897 5899 5900 5900 5900 5901 5902 5902 5902 5903 5903 5904
5829 5828 5827 5826 5825 5825 5825 5825 5825 5826 5826 5826 5826 5826 5826 5827 5827 5828 5828 5828 5829 5829 5830 5830 5831 5831 5833 5834 5835 5836 5837 5839 5840 5841 5842 5843 5844 5846 5847 5849 5851 5852 5853 5854 5855 5857 5858 5860 5862 5863 5864 5865 5868 5868 5869 5872 5873 5874 5876 5877 5879 5880 5882 5885 5885 5886 5887 5887 5888 5889 5888 5887 5889 5892 5893 5893 5895 5897 5899 5900 5900 5901 5901 5901 5902 5903 5903 5904
5825 5824 5823 5822 5821 5821 5820 5820 5821 5821 5822 5822 5822 5822 5822 5823 5823 5824 5824 5824 5825 5826 5826 5827 5827 5828 5829 5831 5832 5833 5835 5836 5837 5838 5839 5840 5841 5842 5844 5846 5848 5849 5850 5851 5853 5854 5856 5858 5860 5861 5862 5865 5866 5866 5869 5871 5872 5873 5874 5876 5877 5879 5881 5884 5884 5885 5886 5886 5886 5888 5888 5887 5888 5891 5893 5894 5895 5897 5898 5899 5900 5900 5900 5901 5902 5902 5903 5903
5820 5819 5818 5818 5817 5816 5816 5816 5816 5816 5817 5817 5818 5818 5818 5819 5819 5820 5820 5820 5821 5822 5823 5823 5824 5825 5825 5827 5828 5829 5831 5832 5833 5835 5836 5837 5838 5839 5841 5843 5844 5846 5848 5849 5851 5852 5854 5856 5858 5859 5861 5863 5863 5865 5868 5869 5871 5872 5873 5875 5877 5878 5881 5882 5883 5884 5886 5885 5884 5887 5887 5887 5888 5889 5891 5893 5895 5897 5898 5899 5899 5899 5899 5900 5901 5902 5902 5903
5816 5815 5814 5813 5813 5812 5811 5811 5811 5811 5812 5813 5813 5814 5814 5814 5815 5815 5816 5816 5817 5818 5819 5819 5820 5821 5822 5823 5824 5825 5827 5829 5830 5832 5833 5834 5835 5836 5838 5840 5842 5843 5845 5846 5848 5849 5851 5853 5855 5857 5858 5860 5862 5864 5865 5866 5868 5870 5871 5874 5875 5877 5880 5881 5882 5883 5885 5884 5882 5885 5887 5887 5888 5888 5888 5890 5893 5896 5897 5898 5899 5899 5899 5900 5901 5901 5902 5903
5812 5811 5810 5809 5808 5808 5807 5807 5806 5807 5807 5808 5808 5809 5809 5810 5810 5811 5811 5812 5812 5813 5815 5815 5816 5817 5818 5819 5821 5822 5823 5825 5827 5828 5830 5831 5832 5833 5835 5837 5838 5840 5842 5843 5845 5847 5848 5850 5852 5854 5856 5858 5860 5861 5862 5864 5867 5869 5871 5873 5874 5876 5878 5880 5881 5881 5882 5882 5882 5884 5886 5886 5887 5888 5888 5889 5891 5893 5894 5896 5898 5899 5899 5900 5901 5902 5902 5902
5807 5807 5806 5804 5804 5803 5803 5802 5802 5802 5803 5803 5804 5804 5804 5805 5806 5806 5807 5807 5808 5809 5810 5811 5812 5813 5814 5816 5817 5818 5820 5821 5823 5824 5826 5828 5829 5831 5832 5833 5835 5837 5838 5840 5842 5844 5846 5848 5849 5851 5853 5855 5858 5859 5862 5865 5867 5868 5869 5871 5873 5875 5876 5879 5881 5881 5880 5880 5880 5882 5885 5885 5885 5887 5888 5888 5890 5891 5891 5893 5895 5897 5898 5899 5900 5902 5902 5902
5802 5802 5801 5800 5799 5799 5799 5798 5798 5798 5798 5798 5799 5799 5799 5800 5801 5801 5802 5803 5803 5804 5805 5806 5808 5808 5810 5813 5813 5814 5816 5817 5819 5821 5823 5824 5826 5828 5829 5830 5832 5834 5835 5837 5839 5841 5842 5844 5846 5848 5851 5855 5857 5859 5862 5863 5864 5865 5866 5869 5871 5872 5874 5877 5880 5882 5880 5877 5878 5880 5883 5884 5883 5885 5887 5887 5888 5890 5890 5891 5894 5896 5897 5898 5900 5901 5901 5901
5798 5797 5797 5796 5795 5795 5794 5794 5794 5793 5793 5794 5794 5794 5795 5795 5796 5797 5797 5798 5798 5799 5801 5802 5803 5804 5805 5809 5809 5810 5813 5814 5815 5817 5819 5821 5822 5824 5825 5827 5828 5830 5832 5834 5836 5837 5839 5841 5843 5847 5851 5854 5856 5857 5859 5860 5860 5861 5863 5865 5868 5870 5873 5875 5878 5882 5881 5878 5877 5878 5879 5881 5881 5883 5886 5887 5887 5888 5890 5891 5895 5897 5897 5898 5900 5901 5901 5900
5793 5793 5792 5791 5790 5790 5789 5789 5789 5789 5788 5788 5789 5789 5789 5790 5791 5792 5793 5793 5794 5795 5795 5797 5798 5799 5801 5804 5805 5806 5808 5810 5811 5813 5815 5817 5819 5820 5821 5823 5825 5827 5829 5831 5833 5834 5835 5837 5841 5846 5849 5850 5852 5853 5855 5856 5857 5858 5858 5860 5864 5867 5871 5874 5876 5880 5881 5880 5878 5877 5877 5878 5880 5881 5883 5885 5886 5886 5888 5890 5893 5895 5896 5897 5899 5901 5901 5899
5788 5787 5787 5786 5785 5785 5784 5784 5783 5783 5783 5783 5783 5784 5784 5785 5785 5786 5788 5788 5789 5790 5790 5792 5793 5795 5797 5799 5801 5802 5803 5805 5807 5809 5811 5814 5815 5816 5818 5820 5821 5823 5826 5827 5829 5830 5832 5835 5840 5843 5845 5847 5849 5850 5852 5853 5854 5855 5856 5858 5862 5865 5869 5871 5874 5877 5880 5880 5880 5878 5877 5877 5878 5880 5881 5883 5884 5884 5887 5890 5891 5892 5894 5895 5898 5900 5900 5898
5783 5782 5781 5781 5780 5779 5779 5778 5778 5778 5778 5778 5778 5778 5778 5779 5780 5781 5782 5783 5784 5785 5786 5787 5788 5790 5791 5793 5796 5797 5799 5800 5802 5805 5808 5809 5810 5811 5814 5816 5817 5820 5822 5823 5825 5827 5830 5834 5837 5840 5841 5843 5845 5847 5848 5850 5852 5853 5855 5857 5861 5864 5866 5869 5873 5877 5877 5877 5879 5879 5878 5876 5875 5877 5879 5879 5880 5882 5886 5890 5890 5891 5892 5894 5896 5898 5899 5898
5778 5777 5776 5776 5775 5774 5773 5773 5773 5773 5772 5773 5773 5773 5773 5774 5775 5775 5776 5777 5778 5780 5781 5781 5783 5785 5786 5788 5790 5792 5794 5796 5797 5801 5803 5804 5805 5808 5810 5812 5814 5816 5818 5820 5822 5824 5827 5831 5833 5836 5837 5839 5841 5843 5845 5847 5849 5851 5853 5856 5859 5862 5864 5866 5871 5873 5873 5872 5876 5880 5879 5875 5872 5873 5877 5877 5877 5879 5883 5887 5889 5890 5890 5892 5894 5895 5897 5897
5773 5772 5772 5771 5770 5769 5768 5768 5768 5768 5768 5768 5768 5768 5769 5769 5770 5770 5771 5772 5772 5775 5777 5777 5778 5780 5781 5783 5785 5786 5789 5790 5792 5796 5798 5799 5801 5804 5806 5809 5811 5813 5814 5817 5818 5821 5824 5827 5829 5831 5833 5835 5837 5839 5842 5844 5846 5848 5851 5853 5856 5859 5860 5863 5866 5868 5869 5870 5873 5877 5877 5875 5872 5871 5873 5875 5875 5875 5878 5884 5887 5888 5888 5890 5893 5895 5896 5896
5769 5768 5767 5767 5766 5765 5764 5763 5763 5763 5764 5764 5764 5765 5765 5765 5766 5766 5768 5768 5766 5769 5773 5773 5774 5775 5777 5778 5780 5781 5783 5784 5787 5790 5793 5794 5797 5799 5802 5805 5807 5809 5811 5812 5814 5816 5820 5822 5825 5827 5829 5831 5833 5835 5838 5840 5843 5845 5848 5850 5853 5856 5857 5859 5860 5862 5864 5867 5871 5873 5872 5873 5873 5872 5871 5872 5874 5874 5876 5881 5884 5884 5886 5889 5891 5892 5895 5896
5764 5764 5763 5762 5762 5761 5761 5760 5760 5759 5760 5760 5761 5761 5762 5762 5763 5763 5765 5765 5762 5764 5768 5770 5770 5771 5772 5774 5775 5777 5778 5780 5783 5785 5787 5790 5792 5795 5797 5799 5802 5804 5806 5808 5809 5812 5816 5818 5821 5823 5826 5828 5830 5832 5835 5837 5839 5842 5846 5847 5850 5852 5854 5855 5855 5857 5860 5862 5866 5869 5869 5868 5869 5872 5874 5872 5871 5873 5874 5879 5882 5883 5884 5887 5889 5890 5892 5895
5761 5760 5759 5759 5758 5758 5757 5757 5757 5756 5756 5757 5757 5758 5759 5760 5760 5761 5762 5762 5760 5761 5764 5767 5767 5768 5769 5770 5771 5773 5774 5776 5778 5780 5783 5785 5787 5790 5791 5793 5796 5798 5800 5803 5806 5809 5811 5814 5817 5819 5821 5824 5827 5829 5832 5834 5835 5839 5843 5844 5846 5848 5850 5852 5853 5854 5857 5859 5860 5863 5866 5866 5866 5870 5875 5873 5869 5869 5872 5876 5880 5883 5884 5886 5888 5890 5891 5894
5757 5757 5756 5756 5755 5755 5755 5754 5753 5753 5753 5753 5754 5755 5756 5757 5758 5759 5760 5759 5758 5760 5761 5762 5764 5765 5766 5766 5768 5769 5770 5771 5773 5775 5778 5779 5781 5784 5786 5788 5791 5792 5794 5797 5800 5803 5806 5809 5812 5814 5817 5820 5824 5826 5828 5830 5831 5836 5839 5840 5842 5845 5846 5848 5849 5851 5853 5852 5854 5858 5861 5864 5865 5868 5872 5874 5870 5867 5870 5873 5876 5881 5884 5885 5887 5889 5890 5892
5754 5754 5753 5753 5753 5752 5752 5752 5751 5750 5750 5751 5751 5753 5754 5755 5755 5757 5757 5756 5756 5759 5759 5759 5761 5763 5763 5764 5765 5766 5767 5768 5770 5772 5774 5775 5777 5779 5781 5784 5787 5789 5790 5793 5796 5799 5801 5802 5804 5809 5813 5815 5818 5821 5823 5825 5828 5832 5835 5837 5839 5840 5840 5842 5845 5848 5848 5846 5850 5856 5859 5861 5864 5866 5870 5873 5873 5870 5870 5870 5872 5877 5881 5883 5885 5887 5888 5889
5751 5751 5750 5750 5750 5749 5750 5750 5748 5747 5748 5749 5749 5750 5751 5752 5754 5755 5755 5754 5755 5756 5756 5756 5758 5760 5761 5762 5762 5763 5765 5765 5767 5769 5770 5772 5774 5775 5777 5780 5781 5783 5786 5789 5793 5797 5797 5798 5800 5804 5807 5809 5812 5816 5818 5821 5826 5829 5831 5833 5835 5836 5837 5839 5843 5846 5843 5843 5849 5855 5858 5858 5858 5863 5868 5872 5874 5874 5872 5869 5869 5873 5878 5881 5883 5885 5886 5887
5748 5748 5747 5747 5747 5747 5747 5747 5746 5745 5746 5746 5747 5748 5749 5750 5752 5753 5752 5753 5753 5752 5753 5755 5757 5758 5759 5760 5759 5762 5763 5763 5764 5766 5767 5769 5771 5771 5773 5774 5775 5779 5783 5785 5787 5791 5794 5796 5798 5801 5803 5805 5808 5811 5815 5818 5822 5824 5826 5828 5831 5833 5833 5835 5840 5842 5841 5842 5848 5854 5856 5855 5855 5859 5866 5871 5874 5874 5874 5871 5868 5869 5873 5877 5881 5883 5884 5885
5746 5745 5745 5744 5744 5744 5744 5744 5744 5743 5743 5744 5745 5746 5747 5748 5749 5750 5750 5749 5749 5749 5752 5754 5755 5755 5757 5758 5757 5760 5761 5761 5762 5764 5764 5767 5768 5768 5769 5770 5773 5776 5778 5779 5782 5787 5791 5793 5795 5797 5799 5800 5803 5807 5810 5815 5818 5819 5823 5825 5827 5830 5831 5833 5836 5839 5841 5843 5846 5851 5852 5851 5852 5856 5861 5867 5871 5871 5873 5875 5871 5868 5869 5874 5879 5882 5882 5883
5744 5743 5742 5742 5741 5741 5741 5741 5741 5741 5741 5742 5743 5743 5745 5746 5747 5747 5745 5745 5747 5749 5750 5752 5752 5754 5755 5755 5756 5758 5759 5758 5760 5762 5763 5764 5766 5767 5765 5765 5770 5773 5774 5777 5780 5783 5788 5791 5793 5794 5796 5796 5799 5805 5807 5811 5814 5815 5818 5822 5823 5826 5829 5832 5835 5837 5841 5843 5844 5847 5847 5847 5850 5853 5856 5863 5867 5868 5871 5875 5875 5871 5868 5870 5876 5881 5881 5882
5742 5741 5740 5739 5739 5739 5739 5739 5739 5739 5739 5740 5740 5741 5742 5743 5743 5742 5742 5744 5746 5747 5748 5749 5750 5751 5752 5752 5754 5755 5755 5756 5758 5760 5760 5762 5764 5763 5759 5762 5768 5770 5771 5774 5776 5778 5783 5789 5790 5790 5792 5791 5794 5801 5805 5807 5810 5812 5814 5816 5819 5824 5827 5830 5833 5836 5839 5842 5843 5843 5843 5845 5849 5851 5853 5857 5861 5864 5868 5872 5875 5874 5869 5868 5872 5876 5878 5882
5741 5739 5738 5738 5737 5737 5736 5737 5736 5737 5737 5738 5738 5739 5739 5740 5739 5740 5741 5743 5744 5745 5745 5747 5748 5749 5750 5750 5749 5751 5752 5753 5755 5757 5758 5758 5760 5758 5757 5762 5767 5768 5768 5771 5773 5774 5777 5781 5783 5784 5787 5789 5792 5797 5800 5802 5806 5810 5812 5813 5816 5821 5825 5826 5829 5832 5835 5836 5839 5842 5842 5843 5846 5848 5850 5852 5856 5861 5864 5867 5872 5875 5870 5866 5869 5872 5875 5880
5739 5738 5737 5736 5735 5735 5734 5734 5734 5734 5735 5736 5736 5737 5737 5737 5737 5739 5740 5741 5742 5743 5744 5744 5745 5745 5748 5749 5746 5746 5749 5750 5751 5754 5755 5754 5755 5755 5756 5759 5762 5764 5766 5768 5770 5770 5772 5777 5779 5781 5785 5787 5789 5792 5793 5795 5801 5806 5811 5815 5817 5819 5820 5822 5824 5828 5830 5831 5834 5839 5843 5844 5845 5845 5848 5849 5851 5856 5860 5862 5868 5873 5868 5863 5866 5870 5873 5877
5738 5736 5735 5734 5734 5733 5733 5733 5732 5733 5733 5734 5734 5735 5735 5736 5737 5737 5738 5738 5740 5741 5741 5741 5741 5742 5746 5748 5745 5743 5745 5747 5748 5751 5752 5751 5751 5752 5754 5755 5758 5761 5763 5765 5766 5766 5770 5775 5776 5778 5782 5784 5785 5787 5789 5791 5794 5799 5805 5811 5813 5815 5816 5817 5819 5822 5826 5828 5831 5836 5840 5844 5846 5846 5847 5847 5846 5851 5856 5857 5862 5867 5864 5863 5866 5867 5869 5873
5737 5735 5734 5733 5733 5732 5732 5732 5732 5732 5733 5733 5733 5733 5734 5734 5735 5736 5736 5736 5737 5738 5739 5739 5739 5740 5743 5744 5742 5740 5742 5745 5747 5747 5748 5748 5747 5748 5750 5753 5755 5758 5760 5762 5763 5764 5766 5770 5771 5774 5777 5778 5779 5781 5786 5790 5790 5793 5799 5804 5806 5809 5811 5812 5815 5818 5822 5826 5830 5834 5837 5842 5847 5850 5849 5847 5844 5847 5851 5853 5856 5860 5859 5862 5867 5866 5864 5867
5736 5735 5734 5733 5733 5732 5732 5732 5732 5732 5732 5732 5732 5732 5733 5733 5733 5734 5734 5735 5735 5736 5737 5737 5737 5738 5739 5740 5739 5739 5739 5741 5742 5743 5744 5744 5743 5742 5745 5749 5751 5754 5757 5758 5760 5761 5762 5763 5767 5770 5770 5770 5774 5778 5784 5789 5788 5791 5796 5800 5802 5803 5805 5808 5810 5813 5818 5822 5827 5832 5835 5840 5846 5849 5849 5849 5846 5844 5845 5847 5851 5854 5855 5860 5866 5867 5864 5863
5736 5735 5734 5734 5733 5732 5732 5732 5732 5732 5732 5732 5732 5732 5732 5732 5732 5733 5733 5733 5734 5734 5735 5735 5735 5736 5737 5737 5736 5736 5736 5737 5739 5741 5741 5740 5739 5738 5740 5744 5747 5749 5752 5754 5755 5753 5753 5755 5761 5765 5765 5765 5770 5774 5779 5783 5785 5788 5793 5796 5798 5799 5802 5805 5808 5811 5815 5818 5822 5829 5834 5839 5843 5844 5846 5849 5850 5846 5843 5843 5846 5850 5854 5857 5861 5864 5864 5862
5736 5735 5734 5734 5734 5733 5732 5732 5732 5732 5732 5732 5732 5732 5732 5732 5731 5731 5731 5732 5732 5732 5732 5732 5732 5733 5734 5733 5732 5732 5733 5733 5735 5737 5737 5734 5734 5736 5737 5738 5741 5744 5746 5748 5746 5743 5747 5753 5757 5760 5761 5762 5765 5768 5771 5773 5775 5779 5783 5787 5790 5794 5798 5802 5806 5810 5813 5816 5820 5825 5830 5837 5840 5840 5841 5845 5849 5848 5845 5843 5844 5847 5851 5854 5857 5859 5861 5861
5736 5736 5735 5734 5734 5733 5733 5733 5732 5732 5732 5731 5731 5731 5731 5730 5730 5730 5730 5730 5730 5730 5730 5729 5729 5730 5730 5730 5729 5729 5729 5729 5729 5731 5731 5729 5729 5733 5732 5731 5735 5737 5738 5740 5740 5741 5748 5752 5753 5755 5757 5759 5762 5764 5766 5768 5769 5770 5774 5778 5782 5788 5794 5799 5802 5806 5809 5814 5820 5821 5824 5831 5834 5835 5837 5840 5844 5846 5845 5843 5842 5845 5848 5851 5853 5855 5857 5859
5736 5736 5735 5734 5734 5733 5733 5732 5732 5732 5731 5731 5730 5730 5729 5729 5729 5728 5728 5728 5728 5728 5728 5727 5726 5727 5727 5727 5726 5726 5726 5726 5724 5725 5725 5724 5724 5726 5725 5725 5728 5728 5729 5733 5736 5740 5745 5744 5744 5748 5751 5755 5761 5761 5763 5767 5767 5768 5772 5776 5779 5783 5790 5795 5798 5802 5803 5807 5815 5818 5821 5826 5831 5833 5836 5838 5841 5843 5844 5843 5841 5845 5849 5849 5849 5851 5853 5855
5737 5736 5735 5734 5733 5733 5732 5732 5731 5731 5730 5729 5729 5728 5728 5727 5727 5727 5726 5726 5726 5725 5725 5724 5724 5724 5723 5723 5723 5722 5722 5722 5720 5719 5720 5718 5718 5719 5718 5719 5722 5720 5721 5727 5730 5734 5736 5734 5736 5741 5744 5749 5755 5755 5756 5759 5759 5760 5765 5771 5775 5780 5785 5788 5791 5795 5797 5802 5807 5810 5815 5822 5826 5828 5832 5834 5836 5838 5839 5839 5839 5840 5842 5840 5841 5845 5848 5851
5736 5735 5735 5734 5733 5732 5731 5731 5731 5730 5729 5728 5728 5727 5727 5726 5725 5725 5725 5724 5724 5723 5722 5722 5721 5721 5720 5719 5719 5717 5717 5716 5715 5714 5714 5712 5712 5712 5711 5712 5714 5713 5714 5718 5720 5724 5726 5725 5729 5733 5737 5743 5747 5747 5747 5748 5751 5753 5757 5764 5771 5775 5777 5780 5783 5789 5794 5798 5800 5801 5807 5814 5816 5817 5821 5824 5826 5829 5828 5828 5830 5830 5831 5834 5837 5842 5848 5852
5736 5735 5734 5733 5733 5732 5731 5730 5730 5729 5728 5727 5726 5726 5725 5725 5724 5724 5723 5723 5722 5721 5720 5719 5718 5717 5716 5715 5714 5713 5712 5710 5709 5709 5708 5707 5707 5706 5705 5705 5705 5705 5708 5709 5710 5713 5715 5717 5722 5726 5729 5736 5740 5741 5742 5743 5746 5749 5751 5756 5762 5763 5765 5768 5772 5779 5784 5789 5792 5796 5802 5809 5810 5809 5813 5815 5819 5822 5821 5819 5822 5824 5828 5834 5835 5838 5844 5847
5736 5735 5734 5733 5732 5731 5730 5729 5728 5727 5727 5726 5725 5724 5724 5723 5722 5722 5721 5720 5719 5718 5717 5716 5714 5713 5712 5711 5710 5709 5707 5706 5705 5705 5704 5703 5703 5701 5700 5700 5699 5699 5701 5701 5702 5705 5706 5708 5714 5717 5720 5726 5731 5733 5736 5737 5740 5743 5746 5750 5755 5758 5761 5763 5765 5771 5777 5780 5784 5790 5796 5801 5803 5804 5807 5809 5811 5813 5814 5816 5819 5822 5826 5830 5830 5832 5836 5839
5735 5734 5733 5732 5731 5729 5729 5728 5727 5726 5726 5725 5724 5723 5722 5721 5721 5720 5719 5717 5716 5715 5714 5712 5711 5710 5709 5708 5707 5706 5704 5703 5703 5702 5701 5701 5700 5699 5698 5697 5697 5696 5696 5696 5696 5697 5698 5700 5706 5709 5711 5715 5720 5725 5729 5731 5733 5737 5739 5743 5748 5753 5757 5760 5762 5768 5772 5774 5779 5786 5790 5793 5795 5797 5801 5803 5803 5806 5809 5812 5816 5820 5824 5826 5826 5827 5830 5833
5734 5733 5732 5731 5730 5728 5727 5727 5726 5725 5724 5723 5722 5722 5720 5719 5718 5717 5716 5715 5713 5712 5711 5709 5708 5707 5706 5705 5704 5703 5702 5701 5700 5700 5699 5698 5697 5696 5695 5694 5694 5693 5692 5692 5693 5692 5693 5696 5700 5702 5703 5706 5712 5717 5722 5723 5725 5729 5732 5737 5742 5746 5751 5757 5760 5762 5765 5768 5773 5779 5784 5790 5792 5791 5794 5795 5797 5800 5803 5805 5810 5816 5820 5823 5823 5823 5825 5828
5733 5731 5731 5729 5728 5727 5726 5725 5724 5724 5723 5722 5721 5720 5719 5717 5716 5714 5713 5712 5710 5709 5708 5707 5706 5705 5704 5703 5702 5701 5700 5699 5698 5697 5696 5695 5695 5694 5692 5691 5691 5690 5689 5689 5689 5689 5690 5692 5695 5695 5696 5699 5705 5711 5715 5717 5719 5721 5726 5732 5737 5740 5745 5750 5754 5758 5761 5763 5765 5768 5777 5787 5788 5787 5787 5788 5791 5794 5796 5800 5807 5812 5815 5818 5819 5820 5822 5826
5731 5730 5729 5728 5727 5726 5725 5724 5723 5723 5722 5721 5719 5718 5717 5715 5714 5712 5711 5710 5708 5707 5706 5705 5704 5703 5702 5701 5700 5699 5698 5697 5696 5695 5694 5693 5692 5691 5690 5689 5688 5687 5687 5687 5687 5688 5688 5689 5690 5690 5690 5694 5699 5703 5707 5710 5711 5714 5721 5727 5731 5735 5739 5743 5748 5753 5756 5757 5758 5762 5771 5779 5782 5782 5782 5781 5785 5789 5792 5797 5803 5806 5809 5812 5815 5817 5820 5824